Volver al catálogo

STARLINK-31569

ActivoComunicacionesVLEO
NORAD 59857·PAYLOAD·🇺🇸 United States

Lanzado May 23, 2024 desde Cape Canaveral Space Force Station

Loading…

Próximos Pases (próximas 24 horas)

TLE

ActualizadoSource: CelesTrak SupGP

Época: Sep 14, 2026, 22:01 UTC

1 59857C 24097Y   26257.91784722  .00018763  00000+0  67960-3 0  2570
2 59857  43.0002 285.7670 0001518 266.9349 177.7034 15.27568680    12

Sigue STARLINK-31569 en tiempo real con AllMySat

Download on the App Store